Regional Weather Roundup
Issued by NWS

Home | Current Version | Previous Version | Text Only | Print | Product List | Glossary Off
Versions: 1 2 3 4 5 6 7 8 9 10 11 12 13 14 15 16 17 18 19 20 21 22 23 24 25 26 27

000
ASUS45 KTFX 210210
RWRMT
MONTANA REGIONAL WEATHER ROUNDUP
NATIONAL WEATHER SERVICE GREAT FALLS MT
700 PM MST SAT JAN 20 2018

NOTE: "FAIR" INDICATES FEW OR NO CLOUDS BELOW 12000 FEET WITH NO
SIGNIFICANT WEATHER AND/OR OBSTRUCTIONS TO VISIBILITY.

MTZ001>007-043-210300-
WEST OF THE DIVIDE

CITY           SKY/WX    TMP DP  RH WIND       PRES   REMARKS
KALISPELL      CLOUDY    34  29  82 S13       30.00S WCI  25
MISSOULA       CLOUDY    32  25  75 CALM      30.03R
BUTTE          CLOUDY    21  15  78 S3        29.97R
MULLAN PASS    CLOUDY    23  20  88 VRB3      29.93S FOG
ANACONDA         N/A     27  18  69 CALM      29.99R
DEER LODGE       N/A     27  21  80 W5        30.01R
EUREKA           N/A     34  28  80 MISG      29.99S
HAMILTON         N/A     34  21  60 S5        30.02S
PLAINS           N/A     36  26  67 SW3       30.03R
RONAN            N/A     34  28  80 SE6       30.03S WCI  29
$$

MTZ008-052>055-210300-
SOUTHWEST MONTANA

CITY           SKY/WX    TMP DP  RH WIND       PRES   REMARKS
BOZEMAN        CLOUDY    24  19  81 E3        29.99R
DILLON         CLOUDY    19  15  84 CALM      29.98R
ENNIS          CLOUDY    23  18  80 CALM      30.02R
W YELLOWSTONE  FAIR       9   7  92 CALM      29.92S
THREE FORKS      N/A     30  23  75 CALM      29.99R
$$

MTZ009-010-012-014-046-048-049-054-210300-
EAST SLOPES AND CENTRAL MONTANA

CITY           SKY/WX    TMP DP  RH WIND       PRES   REMARKS
CUT BANK       FAIR      30  21  69 W18       29.88R WCI  18
GREAT FALLS    FAIR      27  19  72 SW12      29.91S WCI  17
MALMSTROM AFB  FAIR      28  21  78 SW14      29.92R WCI  16
HELENA         FAIR      32  19  58 W12       29.97R WCI  23
AUGUSTA        FAIR      27  19  71 W10       29.89S WCI  17
BOWMANS CRNR   FAIR      25  18  76 SW8       29.90R WCI  16
CHOTEAU          N/A     32  18  55 W15       29.91S WCI  22
FAIRFIELD      FAIR      28  18  66 W6        29.89F WCI  22
POWER          FAIR      21  16  81 W12       29.89S WCI   9
RAYNESFORD     FAIR      32  18  56 SW13      29.92R WCI  22
ULM            FAIR      26  21  82 SW8       29.93R WCI  18
WHITE SULPHUR    N/A     25  16  68 SE10      29.94R WCI  15
$$

MTZ011-013-016-021-045-047-050-051-210300-
NORTH CENTRAL MONTANA

CITY           SKY/WX    TMP DP  RH WIND       PRES   REMARKS
HAVRE          FAIR      27  22  81 SW10      29.89R WCI  17
LEWISTOWN      FAIR      25  17  72 SW15      29.92R WCI  13
N BAR RANCH    FAIR      28  12  50 W7        29.93S WCI  21
CHINOOK          N/A     21  18  86 CALM      29.90S
DENTON         FAIR      25  19  77 MISG      29.89R
GEYSER         FAIR      25  19  78 W10       29.91R WCI  14
GRASS RANGE    FAIR      28  18  68 W6        29.89R WCI  21
STANFORD       FAIR      25  18  73 SW6       29.91R WCI  18
WINIFRED       FAIR      28  21  73 S3        29.91R
$$

MTZ017>020-022>027-061-062-210300-
NORTHEAST MONTANA

CITY           SKY/WX    TMP DP  RH WIND       PRES   REMARKS
GLASGOW        FAIR      21  17  84 SW5       29.91R
GLENDIVE       FAIR      25  20  81 S6        29.95R WCI  18
JORDAN           N/A     20  15  81 W8        29.93S WCI  10
MALTA          CLEAR     10   7  85 W6        29.92R WCI   1
SIDNEY         FAIR      26  21  81 S8        29.94R WCI  18
WOLF POINT     FAIR      20  14  77 CALM      29.93S
PLENTYWOOD       N/A     25  18  74 CALM      29.89R
POPLAR           N/A     23  18  80 CALM      29.94R
$$

MTZ028>42-056>058-210300-
SOUTHCENTRAL AND SOUTHEAST MONTANA

CITY           SKY/WX    TMP DP  RH WIND       PRES   REMARKS
BAKER          FAIR      25  21  85 CALM      29.95R
BILLINGS       MOCLDY    30  18  60 W10       29.95R WCI  21
LIVINGSTON     CLOUDY    26  18  71 W10       29.96R WCI  16
MILES CITY     FAIR      23  18  81 S9        29.96S WCI  13
BIG TIMBER     CLEAR     25  16  68 SW22G29   29.96S WCI  10
FORSYTH          N/A     30  18  59 CALM      29.96S
HARLOWTON      FAIR      25  17  70 W17       29.93R WCI  11
LAUREL           N/A     30  16  55 NW14G20   29.96S WCI  20
ROUNDUP          N/A     25  14  62 S9        29.86R WCI  16
$$

REGIONAL REPORTS...DAKOTAS

CITY           SKY/WX    TMP DP  RH WIND       PRES   REMARKS
WILLISTON      FAIR      23  17  78 SW8       29.92R WCI  14
MINOT          FAIR      29  21  72 W9        29.89R WCI  20
DICKINSON      FAIR      27  21  78 W10       29.90S WCI  17
BEACH          FAIR      25  21  86 SW8       29.96R WCI  16
CROSBY         FAIR      21  18  86 SW12      29.89S WCI   9
TIOGA          FAIR      19  19 100 CALM      29.91R
WATFORD CITY   FAIR      25  19  80 SW7       29.92S WCI  17
BISMARCK       FAIR      31  25  78 W6        29.93R WCI  25
GRAND FORKS    FAIR      23  22  96 W3        29.88R
FARGO          FAIR      32  28  85 SW8       29.91R WCI  25
BUFFALO SD       N/A     29  24  82 W10       29.88R WCI  20
RAPID CITY     FLURRIES  32  27  81 VRB3      29.95S
$$

REGIONAL REPORTS...WYOMING/IDAHO/WASHINGTON

CITY           SKY/WX    TMP DP  RH WIND       PRES   REMARKS
GILLETTE       CLOUDY    27  24  89 SW5       29.94R
SHERIDAN       CLOUDY    27  20  75 CALM      29.95F
BUFFALO WY     CLOUDY    28  15  58 CALM      29.93S
CODY           MOCLDY    26  22  84 N6        29.93S WCI  19
YELLOWSTONE LA   N/A      8   5  87 NW3       29.89S
IDAHO FALLS    FAIR      28  17  63 N8        29.98R WCI  20
SALMON         CLOUDY    28  23  81 NE3       30.05S
BOISE          MOCLDY    36  26  67 N6        30.09R WCI  31
SPOKANE        MOCLDY    35  30  82 S7        30.05R WCI  29
$$

REGIONAL REPORTS...ALBERTA

CITY           SKY/WX    TMP DP  RH WIND       PRES   REMARKS
CALGARY        MOCLDY    34  12  40 W6        29.76S WCI  29
CARDSTON         N/A     34  19  55 W10         N/A  WCI  26
EDMONTON       CLOUDY    21  19  93 NE3       29.80S
FORT MCMURRAY  LGT SNOW  18  16  93 NW7       29.86R WCI   8
HIGH LEVEL     FLURRIES  18  14  86 NW3       29.91R
LETHBRIDGE     MOCLDY    36  23  60 SW12G21   29.85R WCI  27
LLOYDMINSTER   CLOUDY    23  21  93 W2        29.81S
MEDICINE HAT   CLEAR     27  23  86 SW7       29.83S WCI  19
MILK RIVER       N/A     25  19  80 W10         N/A  WCI  15
ONEFOUR          N/A     27  21  80 W2          N/A
PEACE RIVER    CLOUDY    19  16  86 E3        29.84R
PINCHER CREEK  CLOUDY    32  21  64 W15G25    29.85R WCI  22
WATERTON GATE    N/A     34  21  60 SW12G17     N/A  WCI  25
$$

REGIONAL REPORTS...SASKATCHEWAN

CITY           SKY/WX    TMP DP  RH WIND       PRES   REMARKS
CORONACH         N/A     16  14  93 N3          N/A
CYPRESS HILLS    N/A     23  16  74 W3          N/A
ESTEVAN        CLEAR     18  16  93 SW9       29.88R WCI   6
MOOSE JAW        N/A     16  14  93 SW2         N/A
PRINCE ALBERT  CLOUDY    18  14  86 SE5       29.89R
REGINA         CLEAR     23  19  86 NW6       29.87R WCI  16
ROCKGLEN         N/A     19  18  93 W10         N/A  WCI   8
SASKATOON      MOCLDY    21  19  93 SW7       29.86F WCI  13
SWIFT CURRENT  CLEAR     21  16  79 S7        29.82S WCI  13
VAL MARIE        N/A     19  14  79 N2          N/A
$$




USA.gov is the U.S. government's official web portal to all federal, state and local government web resources and services.